Location: Chuathbaluk
(61.5726°N, 159.2454°W)
Time: 04:00:18
(UTC+00:00)

Transit 4A - Pass Details

Date: 30 November 2020
Orbit: 864 x 980 km, 66.8° (Epoch: 26 January)

Event Time Altitude Azimuth Distance (km) Brightness Sun altitude
Rises 18:22:43 0° 196° (SSW) 3,647 11.3 -6.4°
Reaches altitude 10° 18:25:23 10° 189° (S) 2,714 10.7 -6.1°
Maximum altitude 18:31:15 40° 122° (ESE) 1,406 9.7 -5.6°
Drops below altitude 10° 18:37:10 10° 56° (NE) 2,743 10.6 -5.0°
Sets 18:39:52 0° 49° (NE) 3,690 11.2 -4.7°
